WW4HG Weather Reports


Display with metric or nautical units.
time (UTC)temp
F
wind
direction
speed
MPH
gust
MPH
rain 1hr
in
rain 24hr
in
rain mn
in
humidity
%
barometer
mb
20260503190956 65 272 4.0 5.0 0.00 0.00 0.00 39 1020.1
20260503190454 65 311 3.0 5.0 0.00 0.00 0.00 39 1020.1
20260503185951 65 289 5.0 5.0 0.00 0.00 0.00 38 1020.1
20260503185447 65 322 7.0 10.0 0.00 0.00 0.00 38 1020.4
20260503184946 64 275 3.0 5.0 0.00 0.00 0.00 38 1020.4
20260503184443 64 312 0.0 3.0 0.00 0.00 0.00 38 1020.7
20260503183939 64 246 0.0 0.0 0.00 0.00 0.00 38 1020.7
20260503183436 64 288 1.0 3.0 0.00 0.00 0.00 39 1020.7
20260503182933 64 307 6.0 7.0 0.00 0.00 0.00 39 1020.7
20260503182432 64 329 4.0 5.0 0.00 0.00 0.00 39 1020.7
20260503181929 64 284 4.0 5.0 0.00 0.00 0.00 38 1020.7
20260503181426 64 220 0.0 0.0 0.00 0.00 0.00 37 1020.7
20260503180922 64 270 1.0 3.0 0.00 0.00 0.00 39 1021.1
20260503180421 64 300 0.0 0.0 0.00 0.00 0.00 38 1021.1
20260503175916 64 283 1.0 3.0 0.00 0.00 0.00 37 1021.1
20260503175414 64 208 0.0 3.0 0.00 0.00 0.00 38 1021.1
20260503174909 63 297 1.0 3.0 0.00 0.00 0.00 38 1021.4
20260503174408 63 283 1.0 3.0 0.00 0.00 0.00 37 1021.1
20260503173903 63 330 0.0 0.0 0.00 0.00 0.00 38 1021.1
20260503173400 63 302 0.0 3.0 0.00 0.00 0.00 38 1021.4
20260503172856 64 282 2.0 3.0 0.00 0.00 0.00 38 1021.4
20260503172354 64 277 3.0 5.0 0.00 0.00 0.00 39 1021.1
20260503171850 64 311 4.0 5.0 0.00 0.00 0.00 37 1021.4
20260503171347 64 227 0.0 3.0 0.00 0.00 0.00 38 1021.4
20260503170845 64 239 0.0 3.0 0.00 0.00 0.00 38 1021.4
20260503170341 64 312 0.0 0.0 0.00 0.00 0.00 39 1021.4
20260503150733 62 306 0.0 3.0 0.00 0.00 0.00 45
20260503150229 62 155 0.0 0.0 0.00 0.00 0.00 44
20260503140153 60 156 0.0 3.0 0.00 0.00 0.00 50
20260503131117 59 287 2.0 3.0 0.00 0.00 0.00 61
20260503130615 59 319 2.0 3.0 0.00 0.00 0.00 62
20260503130112 60 309 1.0 3.0 0.00 0.00 0.00 63
20260503110459 45 187 0.0 0.0 0.00 0.00 0.00 88
20260503090349 46 197 0.0 0.0 0.00 0.00 0.00 86 1018.7
20260503081318 46 175 0.0 0.0 0.00 0.00 0.00 86 1018.4
20260503080814 46 175 0.0 0.0 0.00 0.00 0.00 86 1018.4
20260503080312 46 175 0.0 0.0 0.00 0.00 0.00 86 1018.0
20260503072748 47 175 0.0 0.0 0.00 0.00 0.00 85 1018.0
20260503072245 47 175 0.0 0.0 0.00 0.00 0.00 85 1018.0
20260503071741 48 175 0.0 0.0 0.00 0.00 0.00 85 1017.7
20260503071238 48 175 0.0 0.0 0.00 0.00 0.00 85 1017.7
20260503070734 48 175 0.0 0.0 0.00 0.00 0.00 84 1017.7
20260503070232 48 175 0.0 0.0 0.00 0.00 0.00 84 1017.7
20260503060151 50 197 0.0 0.0 0.00 0.00 0.00 80 1017.3
20260503054638 51 188 0.0 0.0 0.00 0.00 0.00 79 1017.3
20260503054136 51 197 0.0 0.0 0.00 0.00 0.00 79 1017.3
20260503053633 51 197 0.0 0.0 0.00 0.00 0.00 78 1017.7
20260503053132 51 197 0.0 0.0 0.00 0.00 0.00 78 1017.3
20260503052628 51 197 0.0 0.0 0.00 0.00 0.00 78 1017.3
20260503052124 51 197 0.0 0.0 0.00 0.00 0.00 77 1017.3
20260503051619 52 197 0.0 0.0 0.00 0.00 0.00 77 1017.3
20260503051112 52 197 0.0 0.0 0.00 0.00 0.00 77 1017.3
20260503050608 52 197 0.0 0.0 0.00 0.00 0.00 77 1017.3
20260503050105 52 226 0.0 0.0 0.00 0.00 0.00 77 1017.0
20260503045602 52 204 0.0 0.0 0.00 0.00 0.00 77 1017.3
20260503045100 52 233 0.0 0.0 0.00 0.00 0.00 77 1017.3
20260503044556 52 259 0.0 0.0 0.00 0.00 0.00 78 1017.3
20260503044054 52 210 0.0 0.0 0.00 0.00 0.00 78 1017.0
20260503043549 52 226 0.0 0.0 0.00 0.00 0.00 78 1017.0
20260503043047 53 229 0.0 0.0 0.00 0.00 0.00 78 1017.0
20260503042543 53 209 0.0 0.0 0.00 0.00 0.00 79 1017.0
20260503042040 53 212 0.0 0.0 0.00 0.00 0.00 78 1017.0
20260503041536 53 279 1.0 3.0 0.00 0.00 0.00 78 1017.0
20260503041034 53 204 0.0 0.0 0.00 0.00 0.00 79 1016.7
20260503040531 53 124 0.0 0.0 0.00 0.00 0.00 79 1016.7
20260503040029 53 215 0.0 0.0 0.00 0.00 0.00 79 1016.7
20260503035525 53 304 2.0 3.0 0.00 1.11 1.11 80 1016.7
20260503035023 53 274 0.0 3.0 0.00 1.11 1.11 80 1016.3
20260503034520 53 260 1.0 3.0 0.00 1.11 1.11 80 1016.7
20260503034017 53 288 1.0 3.0 0.00 1.11 1.11 80 1016.7
20260503033514 53 222 0.0 0.0 0.00 1.11 1.11 79 1016.7
20260503033012 53 204 0.0 0.0 0.00 1.11 1.11 79 1016.7
20260503032510 53 266 0.0 0.0 0.00 1.11 1.11 79 1016.3
20260503032008 53 146 0.0 0.0 0.00 1.11 1.11 79 1016.3
20260503031506 53 197 0.0 0.0 0.00 1.11 1.11 79 1016.3
20260503031002 53 294 0.0 0.0 0.00 1.11 1.11 79 1016.3
20260503030458 53 305 2.0 3.0 0.00 1.11 1.11 79 1016.0
20260503025955 53 216 0.0 0.0 0.00 1.11 1.11 79 1016.0
20260503025452 54 212 0.0 0.0 0.00 1.11 1.11 79 1015.6
20260503024950 54 240 0.0 0.0 0.00 1.11 1.11 79 1015.3
20260503024446 54 210 0.0 0.0 0.00 1.11 1.11 79 1015.3
20260503023944 54 281 0.0 0.0 0.00 1.11 1.11 79 1015.3
20260503023440 54 232 0.0 0.0 0.00 1.11 1.11 79 1015.0
20260503022937 54 273 0.0 0.0 0.00 1.11 1.11 79 1015.3
20260503022432 54 200 0.0 0.0 0.00 1.11 1.11 80 1015.3
20260503021928 54 282 0.0 3.0 0.00 1.11 1.11 80 1015.6
20260503021425 54 331 6.0 7.0 0.00 1.11 1.11 80 1015.3
20260503020922 54 282 0.0 0.0 0.00 1.11 1.11 80 1015.0
20260503020420 54 289 0.0 0.0 0.00 1.11 1.11 80 1015.3
20260503015916 54 197 0.0 0.0 0.00 1.11 1.11 81 1015.0
20260503015413 54 251 1.0 3.0 0.00 1.11 1.11 81 1015.0
20260503014909 54 218 0.0 0.0 0.00 1.11 1.11 81 1015.0
20260503014406 54 227 0.0 0.0 0.00 1.11 1.11 81 1015.0
20260503013904 54 270 0.0 0.0 0.00 1.11 1.11 81 1014.6
20260503013401 54 246 0.0 0.0 0.00 1.11 1.11 80 1015.0
20260503012858 54 246 0.0 0.0 0.00 1.11 1.11 80 1015.0
20260503012356 54 231 0.0 0.0 0.00 1.11 1.11 80 1014.6
20260503011852 54 13 0.0 0.0 0.00 1.11 1.11 80 1014.6
20260503011349 54 11 0.0 0.0 0.00 1.11 1.11 80 1014.6
20260503010845 54 197 0.0 0.0 0.00 1.11 1.11 80 1014.3
20260503010342 54 197 0.0 0.0 0.00 1.11 1.11 80 1014.3
20260503005839 54 165 0.0 0.0 0.00 1.11 1.11 80 1014.3
20260503005331 54 207 0.0 0.0 0.00 1.11 1.11 80 1014.3
20260503004827 54 197 0.0 0.0 0.00 1.11 1.11 80 1014.0
20260503004325 54 225 0.0 3.0 0.00 1.11 1.11 80 1014.0
20260503003822 54 280 3.0 5.0 0.00 1.11 1.11 81 1014.3
20260503003319 54 257 3.0 5.0 0.00 1.11 1.11 81 1014.6
20260503002815 54 197 0.0 0.0 0.00 1.11 1.11 81 1014.3
20260503002307 54 220 0.0 0.0 0.00 1.11 1.11 81 1014.3
20260503001804 54 356 2.0 3.0 0.00 1.11 1.11 82 1014.0
20260503001300 54 283 0.0 3.0 0.00 1.11 1.11 82 1014.0
20260503000757 54 289 1.0 3.0 0.00 1.11 1.11 82 1014.0
20260503000254 54 284 0.0 3.0 0.00 1.11 1.11 82 1013.6
20260502235752 54 177 0.0 0.0 0.00 1.11 1.11 83 1013.6
20260502235249 54 237 0.0 0.0 0.00 1.11 1.11 83 1013.6
20260502234745 54 326 1.0 3.0 0.00 1.11 1.11 83 1013.3
20260502234243 54 306 3.0 5.0 0.00 1.11 1.11 83 1013.3
20260502233738 54 212 0.0 0.0 0.00 1.11 1.11 83 1012.9
20260502233235 54 197 0.0 0.0 0.00 1.11 1.11 83 1013.3
20260502232731 54 259 0.0 0.0 0.00 1.11 1.11 83 1013.3
20260502232228 54 287 2.0 5.0 0.00 1.11 1.11 82 1013.3
20260502231725 54 260 1.0 3.0 0.00 1.11 1.11 83 1013.3
20260502231223 54 280 3.0 5.0 0.00 1.11 1.11 83 1013.3
20260502230722 54 210 1.0 3.0 0.00 1.11 1.11 83 1013.3
20260502230219 54 334 2.0 3.0 0.00 1.11 1.11 83 1012.9
20260502225715 54 310 0.0 3.0 0.00 1.11 1.11 83 1012.9
20260502225213 54 268 1.0 3.0 0.00 1.11 1.11 83 1013.3
20260502224708 54 277 3.0 5.0 0.00 1.11 1.11 83 1013.3
20260502224205 54 289 0.0 0.0 0.00 1.11 1.11 83 1013.3
20260502223703 54 289 0.0 0.0 0.00 1.11 1.11 83 1013.3
20260502223201 54 25 0.0 3.0 0.00 1.11 1.11 83 1012.9
20260502222658 54 280 0.0 3.0 0.00 1.11 1.11 84 1012.9
20260502222155 54 197 0.0 0.0 0.00 1.11 1.11 84 1012.9
20260502221650 54 289 3.0 5.0 0.00 1.11 1.11 84 1012.9
20260502221148 54 268 0.0 3.0 0.00 1.11 1.11 84 1012.9
20260502220644 54 251 1.0 3.0 0.00 1.11 1.11 84 1013.3
20260502220140 54 289 5.0 10.0 0.00 1.11 1.11 84 1012.9
20260502215637 55 289 2.0 3.0 0.00 1.11 1.11 84 1012.9
20260502215134 55 280 1.0 3.0 0.00 1.11 1.11 84 1012.6
20260502214631 55 302 4.0 5.0 0.00 1.11 1.11 85 1012.9
20260502214128 55 270 4.0 5.0 0.00 1.11 1.11 85 1012.6
20260502213626 55 263 0.0 3.0 0.00 1.11 1.11 85 1012.6
20260502213123 55 265 5.0 7.0 0.00 1.11 1.11 85 1012.3
20260502212621 55 285 8.0 12.0 0.00 1.11 1.11 85 1012.3
20260502212114 55 282 0.0 3.0 0.00 1.11 1.11 85 1012.6
20260502211609 55 289 1.0 3.0 0.00 1.11 1.11 85 1012.6
20260502211106 55 220 3.0 3.0 0.00 1.11 1.11 85 1012.3
20260502210603 55 289 0.0 0.0 0.00 1.11 1.11 85 1012.6
20260502210100 55 260 2.0 3.0 0.00 1.11 1.11 85 1012.3
20260502205556 55 256 0.0 3.0 0.00 1.11 1.11 85 1012.3
20260502205054 55 285 0.0 0.0 0.00 1.11 1.11 85 1012.3
20260502204550 55 251 0.0 0.0 0.00 1.11 1.11 86 1012.3
20260502204049 55 240 0.0 3.0 0.00 1.11 1.11 85 1011.9
20260502203545 55 253 0.0 0.0 0.00 1.11 1.11 85 1011.9
20260502203043 55 197 1.0 3.0 0.00 1.11 1.11 86 1011.9
20260502202538 55 213 0.0 3.0 0.00 1.11 1.11 85 1011.6
20260502202037 55 282 0.0 0.0 0.00 1.11 1.11 85 1011.6
20260502201532 55 197 1.0 3.0 0.00 1.11 1.11 85 1011.6
20260502201029 55 9 4.0 5.0 0.07 1.11 1.11 85 1011.9
20260502200525 55 271 1.0 3.0 0.07 1.11 1.11 85 1012.3
20260502200023 55 282 2.0 5.0 0.00 1.10 1.10 85 1012.3
20260502195521 55 265 5.0 7.0 0.00 1.10 1.10 85 1012.3
20260502195015 55 274 0.0 3.0 0.07 1.10 1.10 85 1012.3
20260502194507 55 308 1.0 3.0 0.07 1.10 1.10 85 1012.3
20260502194003 55 251 2.0 3.0 0.00 1.09 1.09 85 1011.9
20260502193500 55 286 5.0 7.0 0.00 1.09 1.09 86 1012.3
20260502192955 55 289 4.0 7.0 0.07 1.09 1.09 86 1012.3
20260502192447 55 274 7.0 10.0 0.07 1.09 1.09 86 1012.3
20260502191944 55 288 5.0 7.0 0.00 1.07 1.07 86 1012.6
20260502191441 55 236 0.0 3.0 0.00 1.07 1.07 86 1012.3